Regional Weather Roundup
Issued by NWS Mobile, AL

Home | Current Version | Previous Version | Text Only | Print | Product List | Glossary On
Versions: 1 2 3 4 5 6 7 8 9 10 11 12 13 14 15 16 17 18 19 20 21 22 23 24 25 26 27
000
ASUS44 KMOB 240412
RWRMOB
REGIONAL WEATHER ROUNDUP
NATIONAL WEATHER SERVICE MOBILE AL
1100 PM CDT SUN APR 23 2017

NOTE: "FAIR" INDICATES FEW OR NO CLOUDS BELOW 12,000 FEET WITH NO
      SIGNIFICANT WEATHER AND/OR OBSTRUCTIONS TO VISIBILITY.

  * THESE STATIONS ARE PART OF THE UNIVERSITY OF SOUTH ALABAMA
    MESONET AND ARE NOT UNDER NWS OR FAA QUALITY CONTROL.

ALZ061>064-240500-
COASTAL ALABAMA

CITY           SKY/WX    TMP DP  RH WIND       PRES   REMARKS
MOBILE REG APT CLOUDY    57  48  72 NW9       29.91F
BROOKLEY FIELD CLOUDY    60  51  72 NW12      29.92F
USA CAMPUS*      N/A     57  50  77 CALM      29.91F
DOG RIVER*       N/A     59  50  72 W6        30.63


CITY           SKY/WX    TMP DP  RH WIND       PRES   REMARKS
GULF SHORES    CLEAR     57  51  79 NW8       29.89F

$$

ALZ051>060-240500-
INTERIOR SOUTHWEST AND SOUTH CENTRAL ALABAMA

CITY           SKY/WX    TMP DP  RH WIND       PRES   REMARKS
GREENVILLE     LGT RAIN  55  50  83 NW7       29.85F
EVERGREEN      CLOUDY    56  50  80 NW7       29.88S
ATMORE*          N/A     57  52  82 NW6       29.90F
ANDALUSIA/OPP  MOCLDY    57  51  80 NW9       29.85F
ANDALUSIA*       N/A     54  52  94 NW7       29.86S
FLORALA APT    MOCLDY    56  50  80 CALM      29.87S
FLORALA*         N/A     55  52  88 SW5       30.53S

$$

FLZ001>006-240500-
WESTERN FLORIDA PANHANDLE

CITY           SKY/WX    TMP DP  RH WIND       PRES   REMARKS
PENSACOLA      CLEAR     59  50  72 NW13      29.87F
NAS PENSACOLA  CLEAR     58  50  75 N8        29.87S
MILTON         LGT RAIN  56  50  80 NW6       29.87F
WHTNG S FIELD  PTCLDY    58  52  80 NW6       29.87F


CITY           SKY/WX    TMP DP  RH WIND       PRES   REMARKS
JAY*             N/A     57  50  77 NW8       29.89S
DUKE FIELD     PTCLDY    58  50  74 NW12      29.85F
CRESTVIEW      PTCLDY    57  51  80 NW6       29.87F
VALPARAISO     PTCLDY    59  50  72 NW10      29.85S
DESTIN         CLEAR     63  55  75 N14G24    29.85S

$$

MSZ076-079-240500-
INTERIOR SOUTHEAST MISSISSIPPI

CITY           SKY/WX    TMP DP  RH WIND       PRES   REMARKS
LEAKESVILLE*   NOT AVBL
AGRICOLA*        N/A     55  50  82 W5        29.91

$$

MARINE OBSERVATIONS

STATION/POSITION TIME  TEMP    WIND        PRES    WAVE
                       AIR SEA DIR/SP/G            HT/PER
                 (UTC) (F)     (DEG/KT/KT) (MB)    (FT/S)
PASCAGOULA       0348   58     340/ 10/ 14 1013.0F
PETIT BOIS ISLND 0348   60     340/ 19/ 25 1013.8S
GRAND BAY        0245   60     330/  9     1014.0R
KATRINA CUT      0330   60     340/ 19     1012.5S
CEDAR POINT      0330   60     340/ 12     1012.5R
E DAUPHIN ISLAND 0300   61     330/ 17/ 20 1012.7R
MIDDLE BAY LIGHT 0330   60     320/ 19     1012.2F
USCG MOBILE BAY  0348   59 75  330/  5/  9 1013.4F
STATE DOCKS      0348   60 75              1012.7F
MEAHER PARK      0330   59     310/ 10     1013.2R
FORT MORGAN      0348   60     330/ 19/ 23   N/A
12 S ORANGE BCH  0350   62 74  350/ 19/ 23 1011.2S   4/ 5
PENSACOLA BAY    0348   59 77  340/ 10/ 14 1011.6F
64 S DAUPHIN ISL 0400   66 74  340/ 19/ 23 1012.4
67 S FORT MORGAN 0330   66      30/  2     1011.9R

$$

SELECTED LOCATIONS ACROSS THE REGION

CITY           SKY/WX    TMP DP  RH WIND       PRES   REMARKS
NEW ORLEANS    PTCLDY    60  51  72 NW7       29.98R
GULFPORT       CLOUDY    58  50  75 NW9       29.93F
PASCAGOULA AP  CLOUDY    58  48  69 NW7       29.92F
PASCAGOULA*    NOT AVBL
HATTIESBURG    CLOUDY    58  49  72 NW14G20   29.95S
LAUREL         MOCLDY    57  46  67 NW13G22   29.94F
MERIDIAN       CLOUDY    55  49  80 NW8       29.92F
JACKSON        CLOUDY    57  51  80 CALM      29.96S
MONTGOMERY     CLOUDY    57  49  74 NW13      29.85F
TROY           PTCLDY    56  52  86 W8        29.85S
ASHFORD*         N/A     54  52  94 NW7       29.86S
DOTHAN         PTCLDY    58  54  86 NW8       29.85F
PANAMA CITY    CLEAR     60  55  83 NW7       29.83S

$$





USA.gov is the U.S. government's official web portal to all federal, state and local government web resources and services.